Wind_Speed
26 26 25 25 25 26 27 26 26 25 25 24 24 23 23 23 22 21 20 19 18 18 19 19 19 20 21 22 21 21 22 22 21 21 20 20 20 20 20 20 19 19 20 20
26 26 26 26 25 26 27 27 27 26 25 24 25 24 23 23 23 21 20 19 20 20 19 20 20 20 21 21 21 21 21 21 21 20 19 19 19 18 18 19 19 20 20 20
26 25 26 27 26 27 27 27 28 27 25 24 24 24 24 24 24 23 22 21 21 21 21 21 20 21 21 21 21 20 19 19 19 19 19 19 18 18 18 18 18 19 19 19
27 26 28 25 25 26 27 27 27 26 26 26 25 24 24 24 24 23 22 21 21 21 20 21 21 21 20 20 20 19 19 19 18 18 18 18 18 19 19 19 18 18 19 19
26 27 27 26 26 25 24 25 25 25 26 27 26 26 24 24 23 22 21 21 21 21 20 19 18 18 18 19 19 18 18 18 18 18 18 18 19 19 19 19 19 19 19 20
26 26 26 25 25 25 25 26 25 26 27 26 26 26 24 23 22 22 21 20 19 19 18 18 17 17 17 18 17 17 17 17 17 17 18 18 18 19 19 19 19 19 19 20
25 25 25 24 24 24 26 25 24 24 25 24 24 24 23 23 22 22 21 20 20 19 18 17 17 17 17 17 17 17 17 17 17 17 17 17 17 17 18 19 19 19 19 19
24 25 24 24 24 24 24 24 25 24 25 24 24 23 23 23 23 23 22 21 20 19 18 17 17 17 17 17 17 17 18 18 18 17 18 17 17 16 17 17 18 18 18 18
23 24 23 24 25 25 25 24 25 25 26 27 26 24 23 23 23 23 22 21 19 18 18 17 17 16 17 17 17 17 18 18 18 18 17 17 16 16 17 17 17 18 18 18
24 24 24 23 24 24 25 26 25 25 25 24 24 24 23 23 23 22 22 21 20 20 19 18 17 16 16 16 16 17 17 17 17 17 17 17 16 16 16 16 16 17 18 18
23 24 24 25 25 24 25 25 25 25 25 23 23 23 23 23 23 22 21 21 20 20 20 19 17 16 15 15 16 16 16 17 17 16 16 16 15 15 16 16 17 17 17 18
23 24 25 25 24 24 24 23 24 23 23 22 22 23 23 23 23 22 22 21 21 20 20 19 18 17 17 16 16 17 17 17 17 17 16 16 15 15 16 17 17 17 17 17
21 22 24 24 24 25 24 24 23 22 21 21 21 22 24 23 22 22 22 21 21 21 19 18 18 18 18 17 17 17 17 17 17 17 17 17 16 16 17 18 18 19 18 18
21 21 22 23 23 23 24 23 23 22 20 20 21 21 21 21 21 21 21 22 22 21 19 18 18 18 18 18 18 18 18 18 18 18 18 18 18 18 19 19 19 19 19 18
20 21 22 22 22 21 20 21 21 20 19 19 20 20 20 21 21 21 21 21 21 20 19 18 18 18 18 18 18 18 19 19 19 19 19 19 19 19 20 20 20 20 19 19
19 20 22 22 20 19 19 19 19 19 19 19 19 20 21 21 21 21 21 20 20 20 20 20 20 20 20 19 19 19 19 19 20 20 20 20 20 20 20 21 21 21 20 20
16 17 18 19 19 20 20 19 20 20 20 21 20 19 20 20 21 21 21 21 21 21 22 22 22 21 21 21 20 20 20 21 21 21 21 21 21 21 21 22 22 22 21 21
14 15 15 16 18 18 18 19 20 21 21 19 19 19 20 21 21 21 20 21 21 22 22 22 22 22 22 22 22 22 22 22 22 22 22 22 21 22 22 22 22 21 21 20
11 13 14 15 15 15 17 18 18 18 19 20 20 19 19 20 21 20 21 22 22 22 22 23 23 23 23 23 23 23 23 23 22 22 21 21 21 21 21 21 21 21 21 20
12 13 13 14 14 15 15 16 17 17 18 19 20 19 20 20 21 22 22 22 23 23 23 24 24 24 24 24 24 25 24 24 23 23 22 22 22 22 21 21 21 21 21 22
12 12 13 13 14 14 15 16 16 17 18 19 20 20 21 21 21 21 22 23 24 25 25 25 25 25 25 26 26 26 26 26 25 24 24 24 23 23 23 22 22 22 22 21
12 12 13 14 14 14 15 16 17 17 18 18 19 20 20 21 21 22 22 23 24 25 25 26 26 26 26 27 27 27 27 27 25 25 25 25 24 24 24 23 23 23 23 22
13 13 13 14 14 14 14 15 17 18 18 19 19 19 20 20 21 21 22 22 23 23 24 24 25 25 26 26 27 27 27 27 26 25 25 26 25 25 24 24 23 23 23 22
13 14 14 14 14 14 14 15 16 17 18 19 20 20 20 20 20 21 22 22 23 24 24 24 24 25 25 26 26 26 26 27 27 25 25 25 25 25 24 24 24 23 23 23
13 13 13 13 14 14 15 15 16 17 17 18 18 18 18 19 19 20 21 22 23 24 24 24 24 25 25 25 26 25 26 26 26 25 24 24 24 23 23 24 24 24 24 24
13 14 14 14 14 14 14 15 16 16 17 17 17 18 19 19 19 20 21 21 22 22 23 23 23 24 25 25 25 25 25 24 24 24 23 23 23 23 23 23 24 24 24 24
13 13 14 14 14 14 15 15 15 15 15 16 17 17 18 18 19 19 19 20 21 21 21 22 22 23 23 24 24 24 23 23 23 22 22 22 22 23 23 23 23 23 24 24
Wind_Direction
245 244 242 244 244 245 248 251 254 255 254 251 254 257 259 261 263 265 264 264 268 272 273 273 272 269 270 270 273 274 275 275 272 271 270 269 269 269 271 272 272 270 270 270
248 245 245 247 246 248 250 253 255 255 254 254 254 254 259 263 264 265 261 258 264 269 270 269 269 268 270 272 273 272 271 272 271 270 269 269 270 271 272 273 272 269 270 271
250 248 246 248 248 249 250 251 252 253 253 252 255 256 258 262 263 264 261 261 264 269 271 270 269 269 268 271 272 270 269 270 272 271 271 270 269 271 272 273 273 272 270 271
250 248 247 247 248 248 249 250 250 251 250 249 254 258 258 259 261 263 263 264 268 270 271 270 271 268 266 268 269 268 268 268 270 271 271 273 272 273 274 274 274 272 269 271
252 250 249 247 249 250 249 249 250 252 252 251 255 254 258 260 260 262 264 266 266 268 272 272 271 270 270 269 270 267 268 270 269 269 271 273 273 272 273 273 274 275 272 271
254 252 248 247 248 250 250 251 253 254 256 257 255 256 257 258 258 259 261 263 265 268 270 271 272 271 270 271 269 268 268 270 271 272 271 273 274 273 272 273 274 276 275 272
254 253 249 249 249 250 250 254 256 257 259 261 258 256 256 258 260 259 259 260 263 265 268 269 270 269 269 269 266 265 267 268 269 272 273 274 274 272 272 272 273 275 274 273
253 253 252 251 251 252 253 254 256 259 262 261 261 258 255 255 257 259 259 259 261 265 267 266 266 267 268 267 266 265 266 267 269 272 275 275 275 272 272 272 273 275 277 276
252 252 254 254 252 253 255 255 258 261 263 262 259 259 256 253 254 255 258 261 260 262 264 264 265 266 268 268 267 266 266 266 268 271 274 274 275 269 271 274 274 275 277 276
251 252 255 254 253 255 256 257 260 262 265 260 257 255 253 252 253 253 255 258 259 261 261 262 264 264 268 267 266 265 266 267 269 272 273 273 274 272 272 275 276 276 275 276
252 252 253 253 253 254 257 259 261 264 264 258 256 255 255 252 250 252 254 254 256 258 259 261 261 262 263 265 265 265 266 266 265 268 270 270 270 271 274 276 278 279 278 277
252 251 252 251 252 254 256 260 263 265 263 259 257 257 254 253 251 252 253 252 255 257 256 254 257 261 264 266 267 267 267 266 264 265 268 271 271 272 276 278 281 285 283 281
252 251 250 250 252 252 256 261 264 264 263 259 258 258 252 249 248 250 250 250 253 256 255 254 257 261 264 266 267 268 269 267 265 265 268 272 275 276 278 280 281 284 284 281
250 250 251 252 254 252 255 259 260 261 261 262 262 257 249 246 246 247 249 250 252 254 255 255 256 259 261 264 266 266 266 267 267 267 269 273 276 277 279 281 280 282 284 283
251 249 249 250 252 252 252 256 259 259 261 264 263 258 253 250 248 247 248 250 251 253 254 254 256 258 260 263 264 264 264 263 266 269 271 274 276 277 279 282 283 282 282 283
255 253 250 251 252 251 251 254 259 260 260 263 262 259 256 252 251 250 250 250 251 253 254 254 255 258 259 260 261 261 262 263 265 269 271 273 274 276 279 282 284 282 281 282
258 255 255 254 254 256 257 257 257 259 260 260 259 257 256 254 251 251 250 250 252 255 256 256 256 257 258 259 261 263 264 266 267 268 270 272 273 275 278 281 283 282 280 281
259 258 257 257 259 259 259 258 258 258 260 261 259 256 254 256 254 253 252 252 253 254 256 257 257 257 259 260 261 263 266 268 268 268 269 271 272 274 276 279 281 281 282 281
266 263 262 264 265 265 262 258 258 258 258 260 261 259 256 255 255 255 256 256 255 255 256 257 258 259 260 261 262 263 264 266 267 269 269 269 271 275 278 279 279 280 280 282
272 270 270 268 267 265 263 260 259 257 256 256 258 258 258 259 259 257 256 256 256 257 258 259 258 258 260 261 261 262 264 265 265 266 269 271 273 275 278 280 281 281 281 282
278 273 270 270 269 268 266 264 262 260 259 259 259 260 261 261 260 259 258 257 256 256 257 258 258 258 260 261 261 262 263 265 265 265 267 269 272 274 276 278 279 280 282 281
280 278 274 272 270 270 269 267 265 264 264 264 265 263 263 264 262 261 260 259 259 258 257 257 258 258 258 258 260 262 264 264 264 265 266 268 271 272 274 275 276 277 279 280
282 281 279 278 274 272 272 272 270 268 268 267 268 267 267 267 266 264 262 261 261 260 258 258 259 260 260 260 262 263 263 263 264 264 265 266 268 270 271 272 273 275 276 277
286 282 280 278 276 276 275 274 274 273 272 272 271 270 270 268 266 263 262 262 262 260 259 258 259 261 262 262 262 263 264 264 264 265 264 265 266 267 269 271 273 274 275 278
290 288 286 284 281 278 276 276 275 274 275 274 271 271 272 271 269 267 265 263 262 260 259 258 259 259 259 261 262 263 265 267 267 266 266 265 266 267 268 270 271 273 274 277
290 289 289 288 286 284 283 281 279 277 277 277 276 275 274 272 271 271 268 265 263 262 261 260 260 261 261 261 262 263 264 266 268 267 266 265 265 266 268 271 271 272 273 276
292 291 290 289 288 289 289 288 285 282 281 281 282 281 279 277 275 273 271 268 264 261 261 261 261 261 261 262 262 262 263 264 266 267 266 266 265 266 269 270 271 272 274 275
Height
5762 5764 5766 5767 5769 5770 5771 5772 5773 5774 5775 5777 5777 5777 5778 5779 5780 5780 5780 5780 5780 5781 5781 5781 5781 5781 5781 5781 5780 5780 5780 5780 5780 5780 5779 5779 5779 5779 5779 5779 5779 5778 5778 5778
5755 5757 5759 5760 5762 5764 5765 5766 5767 5768 5770 5771 5772 5772 5773 5773 5774 5775 5775 5775 5775 5775 5775 5775 5775 5775 5775 5775 5775 5774 5774 5774 5773 5773 5773 5773 5773 5773 5773 5773 5772 5772 5772 5771
5748 5750 5751 5753 5756 5757 5758 5759 5761 5762 5764 5764 5765 5766 5766 5767 5768 5769 5769 5769 5770 5769 5769 5769 5769 5769 5769 5769 5769 5768 5768 5768 5767 5767 5767 5767 5767 5767 5767 5767 5766 5765 5765 5765
5741 5744 5744 5749 5749 5750 5751 5752 5754 5755 5757 5758 5759 5759 5759 5761 5762 5762 5763 5763 5763 5763 5763 5763 5763 5763 5763 5762 5763 5763 5763 5762 5762 5762 5762 5762 5762 5761 5761 5760 5760 5759 5759 5758
5734 5735 5737 5740 5741 5742 5744 5745 5747 5748 5749 5750 5751 5752 5754 5755 5755 5756 5756 5757 5757 5758 5757 5757 5756 5756 5757 5757 5757 5757 5757 5757 5757 5756 5756 5756 5756 5755 5755 5754 5753 5753 5752 5752
5726 5728 5730 5734 5735 5736 5738 5739 5741 5741 5742 5743 5745 5746 5747 5748 5748 5749 5749 5750 5751 5751 5751 5751 5751 5751 5751 5750 5750 5751 5751 5751 5751 5750 5750 5750 5749 5749 5748 5748 5747 5746 5746 5745
5719 5720 5723 5726 5728 5729 5732 5734 5735 5735 5736 5737 5738 5739 5740 5741 5741 5742 5743 5743 5745 5745 5745 5745 5745 5745 5745 5745 5745 5745 5745 5745 5745 5745 5744 5744 5743 5743 5742 5741 5741 5740 5739 5738
5713 5714 5719 5719 5721 5722 5724 5726 5727 5728 5728 5730 5731 5732 5733 5734 5735 5735 5736 5737 5738 5738 5739 5739 5740 5739 5739 5740 5740 5739 5739 5739 5739 5739 5738 5738 5737 5737 5736 5735 5734 5733 5733 5732
5707 5710 5711 5712 5713 5715 5716 5718 5719 5720 5721 5723 5724 5725 5726 5727 5728 5729 5730 5730 5731 5732 5733 5733 5734 5734 5734 5734 5733 5733 5733 5734 5734 5733 5732 5732 5731 5731 5730 5729 5728 5727 5727 5726
5699 5701 5703 5705 5706 5708 5709 5711 5712 5713 5714 5714 5715 5717 5718 5720 5721 5722 5723 5724 5725 5726 5726 5727 5727 5727 5728 5728 5728 5728 5728 5728 5728 5727 5727 5726 5726 5725 5724 5723 5723 5722 5721 5720
5693 5695 5697 5698 5699 5701 5702 5704 5705 5706 5706 5707 5708 5709 5710 5712 5713 5715 5716 5717 5718 5719 5720 5720 5721 5722 5722 5722 5722 5722 5722 5722 5722 5722 5721 5721 5720 5720 5719 5718 5717 5716 5715 5714
5687 5689 5690 5691 5693 5694 5696 5697 5698 5698 5699 5700 5701 5701 5702 5703 5705 5708 5709 5710 5712 5713 5713 5714 5715 5716 5716 5716 5716 5716 5716 5716 5716 5716 5716 5715 5715 5714 5713 5713 5712 5710 5709 5708
5681 5682 5683 5684 5686 5687 5689 5690 5691 5691 5692 5693 5694 5694 5695 5696 5698 5700 5702 5704 5705 5706 5707 5708 5709 5710 5710 5710 5710 5711 5711 5711 5711 5710 5710 5710 5709 5708 5708 5707 5706 5704 5703 5702
5674 5675 5676 5678 5679 5681 5682 5683 5684 5684 5685 5686 5687 5687 5687 5689 5691 5693 5695 5697 5698 5700 5701 5701 5702 5703 5704 5704 5704 5704 5705 5705 5704 5704 5704 5704 5703 5702 5701 5700 5699 5698 5697 5696
5668 5669 5670 5671 5672 5673 5674 5676 5676 5677 5679 5680 5680 5680 5681 5682 5684 5686 5688 5690 5691 5693 5694 5695 5696 5697 5697 5697 5698 5698 5698 5698 5698 5698 5698 5697 5697 5696 5695 5694 5693 5692 5691 5689
5661 5662 5663 5664 5666 5667 5668 5669 5670 5671 5673 5673 5673 5674 5675 5676 5678 5679 5681 5683 5684 5686 5687 5688 5689 5690 5690 5691 5691 5691 5691 5691 5691 5691 5691 5691 5690 5689 5688 5687 5686 5685 5684 5683
5656 5657 5657 5658 5659 5661 5662 5663 5664 5665 5666 5667 5667 5668 5669 5670 5671 5673 5674 5676 5677 5678 5680 5681 5682 5682 5683 5683 5684 5684 5685 5685 5685 5685 5684 5684 5684 5683 5682 5681 5680 5678 5677 5676
5652 5652 5653 5653 5654 5655 5656 5657 5658 5658 5659 5660 5660 5661 5663 5664 5665 5666 5667 5668 5670 5671 5672 5673 5674 5675 5675 5676 5677 5677 5677 5677 5677 5677 5677 5677 5677 5676 5675 5674 5673 5672 5670 5669
5648 5648 5649 5649 5649 5649 5650 5651 5652 5653 5654 5654 5655 5655 5656 5657 5658 5658 5660 5661 5662 5663 5664 5665 5666 5667 5668 5668 5669 5669 5670 5670 5670 5670 5670 5670 5669 5668 5668 5667 5665 5664 5663 5662
5643 5643 5643 5643 5644 5644 5644 5645 5646 5647 5647 5648 5648 5649 5649 5650 5650 5651 5652 5653 5654 5655 5656 5657 5658 5659 5660 5660 5661 5661 5661 5662 5662 5662 5662 5662 5661 5661 5660 5659 5658 5657 5656 5656
5638 5638 5638 5638 5638 5639 5639 5639 5640 5640 5641 5641 5642 5642 5642 5642 5643 5643 5644 5645 5646 5647 5648 5648 5649 5650 5651 5651 5652 5652 5653 5653 5653 5653 5654 5654 5653 5653 5652 5652 5651 5650 5649 5648
5634 5634 5634 5633 5633 5634 5634 5634 5634 5634 5634 5634 5634 5634 5635 5635 5635 5635 5635 5636 5637 5638 5639 5640 5640 5641 5642 5642 5642 5643 5643 5644 5644 5644 5645 5645 5645 5645 5644 5644 5643 5643 5642 5641
5630 5629 5629 5628 5628 5628 5628 5628 5628 5628 5628 5628 5627 5627 5627 5627 5627 5627 5627 5628 5628 5628 5629 5630 5631 5632 5632 5633 5633 5634 5634 5634 5635 5635 5635 5636 5636 5636 5636 5635 5635 5635 5634 5633
5625 5625 5624 5623 5623 5622 5622 5622 5622 5622 5621 5621 5620 5619 5619 5619 5619 5619 5619 5619 5619 5620 5620 5621 5622 5623 5623 5624 5624 5625 5625 5625 5626 5626 5626 5627 5627 5627 5627 5627 5627 5627 5626 5626
5620 5620 5619 5618 5617 5617 5617 5616 5616 5615 5614 5613 5613 5612 5612 5611 5611 5611 5610 5610 5610 5610 5611 5612 5613 5613 5614 5614 5615 5616 5616 5617 5617 5617 5618 5618 5618 5618 5618 5619 5619 5618 5618 5618
5616 5615 5614 5613 5613 5612 5611 5610 5609 5608 5607 5607 5606 5605 5604 5604 5603 5602 5602 5602 5602 5602 5602 5603 5604 5604 5605 5606 5606 5607 5607 5608 5608 5609 5609 5609 5610 5610 5610 5610 5610 5610 5610 5609
5611 5610 5609 5609 5608 5607 5606 5605 5603 5602 5601 5601 5599 5598 5597 5597 5596 5595 5594 5594 5593 5593 5594 5594 5595 5596 5596 5597 5598 5598 5599 5599 5599 5600 5600 5601 5601 5602 5602 5602 5602 5602 5601 5601